Aspen, CO

6:22 PM MDT on April 28, 2017 (GMT -0600)
Aspen-Pitkin County / Sardy Field

Weather History for KASE - July, 2013

Change the Weather History Date:

Tuesday, July 2, 2013

  Actual Average Record
Temperature  
Mean Temperature 64 °F 62 °F  
Max Temperature 81 °F 79 °F 90 °F (2002)
Min Temperature 46 °F 45 °F 34 °F (1992)
Degree Days  
Heating Degree Days 1 3  
Month to date heating degree days 2 7  
Since 1 June heating degree days 148 236  
Since 1 July heating degree days 2 7  
Cooling Degree Days 0 0  
Month to date cooling degree days 0 0  
Year to date cooling degree days 16 4  
Since 1 June cooling degree days 16 4  
Growing Degree Days 12 (Base 50)    
Moisture  
Dew Point 36 °F    
Average Humidity 44    
Maximum Humidity 71    
Minimum Humidity 17    
Precipitation  
Precipitation T in 0.04 in 0.40 in (1981)
Month to date precipitation T 0.08  
Year to date precipitation 6.77 8.15  
Sea Level Pressure  
Sea Level Pressure 29.97 in    
Wind  
Wind Speed 6 mph (SW)    
Max Wind Speed 18 mph    
Max Gust Speed 25 mph    
Visibility 10 miles    
Events      
T = Trace of Precipitation, MM = Missing Value Source: NWS Daily Summary

Daily Weather History Graph

Daily Weather History Graph

Search for Another Location

Airport or City:

Trip Planner

Search our weather history database for the weather conditions in past years. The results will help you decide how hot, cold, wet, or windy it might be!

Date:

Astronomy

Jul. 02, 2013 Rise Set
Actual Time 5:45 AM MDT 8:37 PM MDT
Civil Twilight 5:13 AM MDT 9:09 PM MDT
Nautical Twilight 4:32 AM MDT 9:49 PM MDT
Astronomical Twilight 3:46 AM MDT 10:36 PM MDT
Moon 1:48 AM MDT (7/2) 3:55 PM MDT (7/2)
Length of Visible Light 15h 56m
Length of Day
14h 52m
Waning Crescent, 26% of the Moon is Illuminated
Jul 2
Waning Crescent
Jul 8
New
Jul 15
First Quarter
Jul 22
Full
Jul 29
Last Quarter

Hourly Weather History & Observations

Time (MDT) Temp. Dew Point Humidity Pressure Visibility Wind Dir Wind Speed Gust Speed Precip Events Conditions
12:53 AM 55.0 °F 39.0 °F 55% 30.01 in 10.0 mi SSW 6.9 mph - N/A   Clear
1:53 AM 53.1 °F 37.9 °F 57% 30.02 in 10.0 mi South 4.6 mph - N/A   Clear
2:53 AM 53.1 °F 37.9 °F 57% 30.01 in 10.0 mi South 6.9 mph - N/A   Partly Cloudy
3:53 AM 51.1 °F 37.0 °F 59% 30.01 in 10.0 mi South 3.5 mph - N/A   Clear
4:53 AM 46.9 °F 37.0 °F 68% 30.05 in 10.0 mi SSW 4.6 mph - N/A   Clear
5:53 AM 48.9 °F 36.0 °F 61% 30.03 in 10.0 mi SSW 6.9 mph - N/A   Clear
6:53 AM 52.0 °F 37.9 °F 59% 30.04 in 10.0 mi Calm Calm - N/A   Partly Cloudy
8:53 AM 63.0 °F 37.9 °F 40% 30.03 in 10.0 mi Calm Calm - N/A   Clear
9:53 AM 71.1 °F 39.9 °F 32% 30.01 in 10.0 mi North 4.6 mph - N/A   Clear
10:53 AM 73.9 °F 36.0 °F 25% 30.00 in 10.0 mi Variable 6.9 mph - N/A   Clear
11:53 AM 75.9 °F 34.0 °F 22% 29.98 in 10.0 mi North 9.2 mph 16.1 mph N/A   Clear
12:53 PM 77.0 °F 30.9 °F 19% 29.96 in 10.0 mi Variable 6.9 mph 23.0 mph N/A   Scattered Clouds
1:53 PM 78.1 °F 30.9 °F 18% 29.95 in 10.0 mi NNE 9.2 mph - N/A   Scattered Clouds
2:53 PM 77.0 °F 30.9 °F 19% 29.93 in 10.0 mi Variable 3.5 mph - N/A   Mostly Cloudy
3:53 PM 78.1 °F 33.1 °F 19% 29.93 in 10.0 mi Variable 5.8 mph 16.1 mph N/A   Scattered Clouds
4:53 PM 75.0 °F 35.1 °F 23% 29.95 in 10.0 mi ENE 13.8 mph 20.7 mph N/A   Scattered Clouds
5:53 PM 73.0 °F 41.0 °F 31% 29.94 in 10.0 mi WSW 11.5 mph - 0.00 in   Scattered Clouds
6:53 PM 75.9 °F 34.0 °F 22% 29.91 in 10.0 mi North 6.9 mph - N/A   Scattered Clouds
7:53 PM 70.0 °F 36.0 °F 29% 29.91 in 10.0 mi West 8.1 mph - N/A   Partly Cloudy
8:53 PM 60.1 °F 39.0 °F 46% 29.92 in 10.0 mi Calm Calm - N/A   Clear
9:53 PM 57.9 °F 37.9 °F 47% 29.92 in 10.0 mi SSW 9.2 mph - N/A   Mostly Cloudy
10:53 PM 54.0 °F 37.9 °F 55% 29.94 in 10.0 mi SSW 6.9 mph - N/A   Clear
11:53 PM 53.1 °F 37.0 °F 55% 29.93 in 10.0 mi SSW 6.9 mph - N/A   Clear